Location: Dattensoll
(49.9928°N, 9.8954°E)
Time: 20:32:46
(UTC+00:00)

Landsat 5 - Pass Details

Date: 19 May 2025
Orbit: 510 x 610 km, 98.1° (Epoch: 15 June)

Event Time Altitude Azimuth Distance (km) Brightness Sun altitude
Rises 21:52:53 0° 20° (NNE) 2,814 7.7 -17.6°
Reaches altitude 10° 21:55:10 10° 29° (NNE) 1,925 6.6 -17.7°
Maximum altitude 21:59:04 37° 98° (E) 933 4.2 -17.9°
Enters shadow 21:59:57 33° 127° (SE) 1,011 4.2 -18.0°
